Location: Bougoura
(13.1861°N, 5.0773°W)
Time: 01:26:34
(UTC+00:00)

Milstar 3 Cent rocket - Pass Details

Date: 18 September 2020
Orbit: 708 x 5145 km, 28.3° (Epoch: 21 October)

Event Time Altitude Azimuth Distance (km) Brightness Sun altitude
Rises 19:23:37 0° 261° (W) 5,354 7.9 -16.5°
Reaches altitude 10° 19:28:13 10° 268° (W) 3,697 6.8 -17.7°
Maximum altitude 19:35:49 37° 334° (NNW) 1,461 3.7 -19.5°
Enters shadow 19:39:34 16° 36° (NE) 1,980 3.8 -20.4°
